Content
SEND FEEDBACK

Daily
Averages
Monthly
Summary
Mexico

PUEBLA - JARDINES DE SAN MANUEL, PUEBLA


Home > North America > Mexico > Puebla
Elevation: 6962 feet     Latitude: 19 00N     Longitude: 098 11W

WEATHER
 
SELECT A DAY
Number of Records: 121,122;   Date Range: 1/1/95 - 8/31/14
 
SHARE

PRINT THIS DATA

[ ← Previous Day ]
WEATHER ALMANAC - DECEMBER 25, 2013
[ Next Day → ]
[ °C ]   °F
Weather ElementAverageHighLow
Temperature55.5 °F68 °F (12:42 pm)42.8 °F (6:40 am)
Dewpoint43.4 °F48.2 °F (8:44 am)34 °F (5:40 pm)
Humidity65.7 %93 % (5:44 am)23 % (5:40 pm)
Barometer30.28 in30.53 in (12:42 pm)29.84 in (5:40 pm)
Wind Speed5.2 mph11.5 mph (5:45 pm)
Weather ElementAverage
Visibility6.9 mi
Wind DirectionSSE (173 °)

Weather ElementTotal
Precipitation---
Heating Degree Days9.6 (Base 65)
Growing Degree Days5.4 (Base 50)
Averaged from 22 records on December 25, 2013
WEATHER CONDITIONS BREAKOUT
WIND DIRECTION BREAKOUT
WEATHER BY HOUR - DECEMBER 25, 2013
[ °C ]   °F
Local TimeTemperatureDewpointHumidityBarometerVisibilityWind DirectionWind SpeedGust SpeedPrecipitationEventsConditions
5:44 AM44.6 °F42.8 °F93 %30.35 in6.0 miNW (320°)4.6 mphPartly Cloudy
5:45 AM45.0 °F43.0 °F90 %30.04 in3.0 miCalmHaze
6:40 AM42.8 °F41.0 °F93 %30.35 in6.0 miNorth (350°)3.5 mphClear
7:47 AM44.6 °F42.8 °F93 %30.38 in5.0 miNW (320°)2.3 mphClear
8:44 AM55.4 °F48.2 °F77 %30.40 in5.0 miCalmClear
9:40 AM57.2 °F46.4 °F67 %30.41 in5.0 miEast (80°)3.5 mphClear
10:41 AM62.6 °F46.4 °F55 %30.39 in5.0 miCalmClear
11:43 AM64.4 °F44.6 °F49 %30.37 in6.0 miCalmPartly Cloudy
12:42 PM68.0 °F42.8 °F40 %30.53 in8.0 miSouth (180°)6.9 mphScattered Clouds
1:40 PM68.0 °F42.8 °F40 %30.29 in10.0 miSSW (210°)5.8 mphScattered Clouds
2:43 PM68.0 °F42.8 °F40 %30.26 in10.0 miSW (230°)8.1 mphScattered Clouds
3:44 PM66.2 °F44.6 °F46 %30.26 in10.0 miSouth (190°)10.4 mphMostly Cloudy
4:45 PM59.0 °F44.6 °F59 %30.28 in10.0 miNNE (20°)10.4 mphMostly Cloudy
5:40 PM62.0 °F34.0 °F23 %29.84 in9.0 miSSE (150°)11.2 mphHaze
5:45 PM53.6 °F44.6 °F72 %30.31 in8.0 miNE (40°)11.5 mphMostly Cloudy
6:43 PM51.8 °F46.4 °F82 %30.34 in8.0 miCalmOvercast
7:43 PM50.0 °F44.6 °F82 %30.36 in8.0 miNorth (350°)9.2 mphMostly Cloudy
8:42 PM48.2 °F44.6 °F87 %30.37 in8.0 miNorth (360°)8.1 mphMostly Cloudy
8:50 PM57.0 °F36.0 °F34 %29.88 in3.0 miWNW (290°)2.2 mphMostly Cloudy
9:48 PM48.2 °F44.6 °F87 %30.39 in8.0 miNorth (10°)9.2 mphMostly Cloudy
10:45 PM50.0 °F44.6 °F82 %30.39 in8.0 miNorth (360°)6.9 mphMostly Cloudy
11:50 PM55.0 °F43.0 °F54 %29.91 in3.0 miCalmOvercast
Hourly data recorded from MMPB, located miles away from Puebla - Jardines de San Manuel, Puebla







STORIES FROM OUR PARTNERS